TimeEDT,TemperatureF,Dew PointF,Humidity,Sea Level PressureIn,VisibilityMPH,Wind Direction,Wind SpeedMPH,Gust SpeedMPH,PrecipitationIn,Events,Conditions,WindDirDegrees,DateUTC
12:51 AM,64.9,57.0,75,30.10,10.0,SSE,5.8,-,N/A,,Overcast,160,2013-08-08 04:51:00
1:51 AM,64.9,57.0,75,30.09,10.0,South,10.4,-,N/A,,Overcast,170,2013-08-08 05:51:00
2:25 AM,64.4,57.2,77,30.08,10.0,SSE,8.1,-,N/A,,Overcast,160,2013-08-08 06:25:00
2:51 AM,64.9,57.0,75,30.08,10.0,SSE,4.6,-,N/A,,Overcast,150,2013-08-08 06:51:00
3:51 AM,64.9,57.9,78,30.07,10.0,SSE,9.2,-,N/A,,Overcast,160,2013-08-08 07:51:00
4:51 AM,64.0,57.9,80,30.05,10.0,South,6.9,-,N/A,,Overcast,170,2013-08-08 08:51:00
5:51 AM,64.0,59.0,84,30.05,10.0,SSE,6.9,-,N/A,,Overcast,160,2013-08-08 09:51:00
6:51 AM,64.9,60.1,84,30.06,10.0,SSE,3.5,-,N/A,,Overcast,150,2013-08-08 10:51:00
7:37 AM,64.4,60.8,88,30.07,10.0,SSE,3.5,-,N/A,,Overcast,150,2013-08-08 11:37:00
7:51 AM,64.9,61.0,87,30.06,10.0,SSE,5.8,-,N/A,,Overcast,160,2013-08-08 11:51:00
8:51 AM,66.9,63.0,87,30.06,10.0,SSE,5.8,-,N/A,,Overcast,160,2013-08-08 12:51:00
9:51 AM,69.1,64.9,87,30.06,10.0,South,5.8,-,N/A,,Overcast,180,2013-08-08 13:51:00
10:13 AM,71.6,66.2,83,30.06,10.0,South,6.9,-,N/A,,Overcast,170,2013-08-08 14:13:00
10:51 AM,75.0,66.9,76,30.04,10.0,SSW,8.1,-,N/A,,Mostly Cloudy,200,2013-08-08 14:51:00
11:18 AM,75.2,66.2,73,30.04,10.0,South,8.1,-,N/A,,Mostly Cloudy,190,2013-08-08 15:18:00
11:51 AM,77.0,66.9,71,30.03,10.0,SSW,6.9,-,N/A,,Mostly Cloudy,200,2013-08-08 15:51:00
12:51 PM,79.0,68.0,69,30.03,10.0,SSE,6.9,-,N/A,,Overcast,160,2013-08-08 16:51:00
1:32 PM,77.0,66.2,69,30.03,10.0,South,4.6,-,N/A,,Overcast,190,2013-08-08 17:32:00
1:51 PM,79.0,68.0,69,30.02,10.0,SSW,9.2,-,N/A,,Overcast,200,2013-08-08 17:51:00
2:02 PM,78.8,66.2,65,30.02,10.0,SSW,8.1,-,N/A,,Overcast,200,2013-08-08 18:02:00
2:51 PM,82.9,66.0,56,30.01,10.0,SSW,8.1,18.4,N/A,,Partly Cloudy,200,2013-08-08 18:51:00
3:51 PM,81.0,68.0,65,30.01,10.0,SSW,11.5,-,N/A,,Mostly Cloudy,200,2013-08-08 19:51:00
4:51 PM,80.1,66.0,62,30.00,10.0,South,8.1,-,N/A,,Overcast,190,2013-08-08 20:51:00
5:51 PM,80.1,66.9,64,29.99,10.0,South,11.5,-,N/A,,Clear,170,2013-08-08 21:51:00
6:51 PM,77.0,68.0,74,29.99,10.0,South,5.8,-,N/A,,Clear,170,2013-08-08 22:51:00
7:51 PM,75.0,69.1,82,30.00,10.0,SSE,5.8,-,N/A,,Partly Cloudy,160,2013-08-08 23:51:00
8:51 PM,73.9,69.1,85,30.01,10.0,SSE,5.8,-,N/A,,Clear,160,2013-08-09 00:51:00
9:51 PM,73.9,69.1,85,30.02,10.0,SSE,3.5,-,N/A,,Clear,150,2013-08-09 01:51:00
10:51 PM,73.0,70.0,90,30.01,10.0,South,4.6,-,N/A,,Clear,170,2013-08-09 02:51:00
11:51 PM,73.0,69.1,87,30.00,10.0,South,5.8,-,N/A,,Scattered Clouds,170,2013-08-09 03:51:00